Terug naar catalogus

DELTA 1 DEB

ActiefPO
NORAD 8956·DEBRIS·🇺🇸 United States

Gelanceerd Jan 22, 1975 vanaf Vandenberg Space Force Base

Loading…

Volgende Passages (komende 24 uur)

TLE

VersSource: Space-Track

Epoch: Sep 14, 2026, 00:18 UTC

1 08956U 75004AN  26257.01306399  .00001395  00000-0  16181-3 0  9995
2 08956  98.3691  88.3145 0023136 352.6587   7.4285 14.87032731675174

Volg DELTA 1 DEB in realtime met AllMySat

Download on the App Store